BAW9GB LEPA-EGLL

Flight info

Callsign BAW9GB
Flight time 2h 3m
Altitude 38000
Route DRAGO N863 GIROM DCT GONUP DCT MANAK DCT EPAPU DCT RINSO DCT EKRAS DCT UPALO DCT REVTU DCT BOLRO UP87 ROXOG
Aircraft A20N/M-SDE2E3FGHIRWXY/LB1

Departure

Time 2026-05-06 14:02
Airport Palma de Mallorca Airport (LEPA)

Arrival

Time 2026-05-06 16:06
Airport London Heathrow Airport (EGLL)
Time Latitude Longitude Altitude Speed Heading
2026-05-06 13:15 39.55287 2.73296 11 ft 0 kts 196°
2026-05-06 13:50 39.55289 2.73296 65 ft 2 kts 196°
2026-05-06 13:50 39.55314 2.73305 37 ft 4 kts 194°
2026-05-06 13:50 39.55341 2.73313 35 ft 4 kts 188°
2026-05-06 13:51 39.55367 2.73314 35 ft 4 kts 156°
2026-05-06 13:51 39.55377 2.73307 36 ft 1 kts 59°
2026-05-06 13:51 39.55375 2.73301 36 ft 0 kts 59°
2026-05-06 13:54 39.55376 2.73303 36 ft 2 kts 59°
2026-05-06 13:54 39.55391 2.73336 36 ft 6 kts 59°
2026-05-06 13:54 39.55419 2.73395 38 ft 8 kts 59°
2026-05-06 13:55 39.55408 2.73454 36 ft 7 kts 142°
2026-05-06 13:55 39.55370 2.73484 38 ft 6 kts 149°
2026-05-06 13:55 39.55327 2.73517 38 ft 8 kts 149°
2026-05-06 13:55 39.55275 2.73559 38 ft 9 kts 148°
2026-05-06 13:56 39.55220 2.73602 38 ft 9 kts 149°
2026-05-06 13:56 39.55171 2.73647 38 ft 7 kts 120°
2026-05-06 13:56 39.55177 2.73697 38 ft 5 kts 73°
2026-05-06 13:56 39.55166 2.73756 36 ft 8 kts 109°
2026-05-06 13:57 39.55181 2.73824 38 ft 8 kts 78°
2026-05-06 13:57 39.55146 2.73875 38 ft 9 kts 148°
2026-05-06 13:57 39.55086 2.73922 38 ft 11 kts 148°
2026-05-06 13:57 39.55013 2.73979 38 ft 13 kts 149°
2026-05-06 13:58 39.54958 2.74022 38 ft 15 kts 149°
2026-05-06 13:58 39.54878 2.74085 36 ft 13 kts 148°
2026-05-06 13:58 39.54810 2.74125 38 ft 11 kts 180°
2026-05-06 13:58 39.54755 2.74050 38 ft 13 kts 238°
2026-05-06 13:59 39.54701 2.73939 38 ft 16 kts 239°
2026-05-06 13:59 39.54639 2.73807 38 ft 18 kts 238°
2026-05-06 13:59 39.54572 2.73666 38 ft 19 kts 238°
2026-05-06 13:59 39.54514 2.73544 38 ft 13 kts 238°
2026-05-06 14:00 39.54462 2.73435 36 ft 16 kts 238°
2026-05-06 14:00 39.54400 2.73304 38 ft 18 kts 238°
2026-05-06 14:00 39.54358 2.73214 38 ft 11 kts 239°
2026-05-06 14:00 39.54306 2.73163 38 ft 9 kts 171°
2026-05-06 14:01 39.54269 2.73229 38 ft 11 kts 96°
2026-05-06 14:01 39.54268 2.73333 38 ft 12 kts 90°
2026-05-06 14:01 39.54269 2.73451 38 ft 14 kts 82°
2026-05-06 14:01 39.54315 2.73571 38 ft 18 kts 59°
2026-05-06 14:02 39.54442 2.73842 38 ft 64 kts 58°
2026-05-06 14:02 39.54771 2.74540 36 ft 121 kts 59°
2026-05-06 14:02 39.55304 2.75670 150 ft 154 kts 60°
2026-05-06 14:02 39.55829 2.76767 865 ft 142 kts 60°
2026-05-06 14:03 39.56368 2.77910 1269 ft 156 kts 60°
2026-05-06 14:03 39.56943 2.79151 1714 ft 165 kts 60°
2026-05-06 14:03 39.57540 2.80458 2235 ft 172 kts 60°
2026-05-06 14:03 39.58201 2.81837 2722 ft 189 kts 58°
2026-05-06 14:04 39.58959 2.83344 3155 ft 210 kts 57°
2026-05-06 14:04 39.59790 2.85006 3734 ft 224 kts 57°
2026-05-06 14:04 39.60630 2.86718 4637 ft 226 kts 57°
2026-05-06 14:04 39.61478 2.88472 5445 ft 232 kts 57°
2026-05-06 14:05 39.62340 2.90266 6295 ft 236 kts 58°
2026-05-06 14:05 39.63385 2.91901 7075 ft 239 kts 33°
2026-05-06 14:05 39.64904 2.92679 7839 ft 238 kts
2026-05-06 14:05 39.66567 2.92378 8386 ft 250 kts 333°
2026-05-06 14:06 39.67994 2.90985 8782 ft 268 kts 306°
2026-05-06 14:06 39.68874 2.88810 9304 ft 277 kts 288°
2026-05-06 14:06 39.69434 2.86423 10287 ft 277 kts 284°
2026-05-06 14:06 39.69990 2.83935 10763 ft 299 kts 285°
2026-05-06 14:07 39.70654 2.81265 11103 ft 321 kts 287°
2026-05-06 14:07 39.71409 2.78520 11741 ft 328 kts 288°
2026-05-06 14:07 39.72221 2.75715 12563 ft 333 kts 288°
2026-05-06 14:07 39.73052 2.72890 13444 ft 334 kts 288°
2026-05-06 14:08 39.73892 2.70042 14136 ft 340 kts 288°
2026-05-06 14:08 39.74739 2.67162 14876 ft 342 kts 288°
2026-05-06 14:08 39.75588 2.64276 15603 ft 345 kts 288°
2026-05-06 14:08 39.76445 2.61351 16329 ft 348 kts 288°
2026-05-06 14:09 39.77308 2.58396 17032 ft 351 kts 288°
2026-05-06 14:09 39.78176 2.55423 17768 ft 353 kts 287°
2026-05-06 14:09 39.79036 2.52466 18442 ft 356 kts 287°
2026-05-06 14:09 39.79916 2.49436 19043 ft 359 kts 287°
2026-05-06 14:10 39.80799 2.46393 19660 ft 361 kts 287°
2026-05-06 14:10 39.81687 2.43331 20256 ft 363 kts 287°
2026-05-06 14:10 39.82581 2.40242 20841 ft 366 kts 286°
2026-05-06 14:10 39.83481 2.37131 21426 ft 368 kts 286°
2026-05-06 14:11 39.84385 2.34006 22007 ft 371 kts 286°
2026-05-06 14:11 39.85295 2.30850 22575 ft 374 kts 286°
2026-05-06 14:11 39.86211 2.27674 23176 ft 376 kts 286°
2026-05-06 14:11 39.87130 2.24483 23719 ft 378 kts 286°
2026-05-06 14:12 39.88055 2.21266 24191 ft 380 kts 286°
2026-05-06 14:12 39.88984 2.18033 24662 ft 382 kts 285°
2026-05-06 14:12 39.89916 2.14784 25117 ft 384 kts 285°
2026-05-06 14:12 39.90853 2.11514 25579 ft 386 kts 285°
2026-05-06 14:13 39.91794 2.08225 26014 ft 388 kts 285°
2026-05-06 14:13 39.92737 2.04924 26457 ft 390 kts 285°
2026-05-06 14:13 39.93674 2.01642 26866 ft 392 kts 285°
2026-05-06 14:13 39.94626 1.98301 27289 ft 394 kts 285°
2026-05-06 14:14 39.95585 1.94931 27688 ft 396 kts 285°
2026-05-06 14:14 39.96546 1.91549 28069 ft 398 kts 285°
2026-05-06 14:14 39.97502 1.88183 28522 ft 399 kts 285°
2026-05-06 14:14 39.98466 1.84784 28880 ft 401 kts 285°
2026-05-06 14:15 39.99600 1.81432 29209 ft 409 kts 294°
2026-05-06 14:15 40.01275 1.78371 29542 ft 422 kts 305°
2026-05-06 14:15 40.03488 1.75769 29933 ft 435 kts 317°
2026-05-06 14:15 40.06165 1.73787 30207 ft 450 kts 329°
2026-05-06 14:16 40.09103 1.72266 30495 ft 455 kts 331°
2026-05-06 14:16 40.12027 1.70787 30792 ft 456 kts 331°
2026-05-06 14:16 40.14990 1.69286 31094 ft 457 kts 330°
2026-05-06 14:16 40.17958 1.67774 31465 ft 457 kts 330°
2026-05-06 14:17 40.20913 1.66262 31850 ft 455 kts 330°
2026-05-06 14:17 40.23857 1.64750 32237 ft 454 kts 330°
2026-05-06 14:17 40.26798 1.63236 32680 ft 452 kts 330°
2026-05-06 14:17 40.29722 1.61728 33060 ft 451 kts 330°
2026-05-06 14:18 40.32642 1.60221 33431 ft 450 kts 330°
2026-05-06 14:18 40.35552 1.58716 33780 ft 449 kts 330°
2026-05-06 14:18 40.38455 1.57215 34091 ft 448 kts 330°
2026-05-06 14:18 40.41350 1.55715 34331 ft 448 kts 330°
2026-05-06 14:19 40.44251 1.54211 34549 ft 448 kts 330°
2026-05-06 14:19 40.47144 1.52709 34816 ft 448 kts 330°
2026-05-06 14:19 40.50051 1.51198 35039 ft 448 kts 330°
2026-05-06 14:19 40.52912 1.49710 35263 ft 448 kts 330°
2026-05-06 14:20 40.55812 1.48201 35474 ft 448 kts 330°
2026-05-06 14:20 40.58718 1.46687 35683 ft 448 kts 330°
2026-05-06 14:20 40.61622 1.45174 35883 ft 448 kts 330°
2026-05-06 14:20 40.64531 1.43656 36074 ft 448 kts 330°
2026-05-06 14:21 40.67426 1.42143 36263 ft 448 kts 331°
2026-05-06 14:21 40.70328 1.40626 36451 ft 449 kts 331°
2026-05-06 14:21 40.73231 1.39108 36628 ft 449 kts 331°
2026-05-06 14:21 40.76138 1.37586 36807 ft 449 kts 331°
2026-05-06 14:22 40.79040 1.36065 36976 ft 449 kts 331°
2026-05-06 14:22 40.81913 1.34557 37137 ft 449 kts 331°
2026-05-06 14:22 40.84814 1.33034 37299 ft 449 kts 331°
2026-05-06 14:22 40.87722 1.31506 37457 ft 449 kts 331°
2026-05-06 14:23 40.90626 1.29978 37651 ft 449 kts 331°
2026-05-06 14:23 40.93406 1.28174 37733 ft 441 kts 320°
2026-05-06 14:23 40.95773 1.25688 37821 ft 430 kts 308°
2026-05-06 14:23 40.97876 1.22872 37926 ft 432 kts 311°
2026-05-06 14:24 41.00297 1.20471 37936 ft 442 kts 323°
2026-05-06 14:24 41.03131 1.18767 37937 ft 453 kts 336°
2026-05-06 14:24 41.09463 1.17421 37939 ft 466 kts 349°
2026-05-06 14:25 41.15955 1.16916 37939 ft 466 kts 350°
2026-05-06 14:25 41.22357 1.16345 37938 ft 465 kts 349°
2026-05-06 14:26 41.28877 1.15668 37928 ft 464 kts 349°
2026-05-06 14:26 41.35327 1.14982 37958 ft 465 kts 349°
2026-05-06 14:27 41.41708 1.14314 37921 ft 460 kts 349°
2026-05-06 14:27 41.48095 1.13642 37917 ft 460 kts 349°
2026-05-06 14:28 41.54488 1.12966 37909 ft 461 kts 349°
2026-05-06 14:28 41.60884 1.12290 37905 ft 460 kts 349°
2026-05-06 14:29 41.67265 1.11614 37920 ft 460 kts 349°
2026-05-06 14:29 41.73654 1.10936 37936 ft 460 kts 349°
2026-05-06 14:30 41.80006 1.10259 37946 ft 461 kts 349°
2026-05-06 14:30 41.86401 1.09578 37963 ft 461 kts 349°
2026-05-06 14:31 41.92803 1.08895 37974 ft 461 kts 349°
2026-05-06 14:31 41.99211 1.08209 37985 ft 462 kts 350°
2026-05-06 14:32 42.05625 1.07521 37967 ft 462 kts 350°
2026-05-06 14:32 42.12041 1.06832 37952 ft 463 kts 350°
2026-05-06 14:33 42.18463 1.06141 37938 ft 463 kts 350°
2026-05-06 14:33 42.24904 1.05447 37907 ft 464 kts 350°
2026-05-06 14:34 42.31345 1.04753 37907 ft 464 kts 350°
2026-05-06 14:34 42.37731 1.04064 37918 ft 464 kts 350°
2026-05-06 14:35 42.44177 1.03364 37909 ft 463 kts 350°
2026-05-06 14:35 42.50594 1.02668 37920 ft 463 kts 351°
2026-05-06 14:36 42.57045 1.01963 37931 ft 463 kts 350°
2026-05-06 14:36 42.63435 1.01263 37944 ft 462 kts 350°
2026-05-06 14:37 42.69860 1.00558 37955 ft 463 kts 351°
2026-05-06 14:37 42.76281 0.99795 37960 ft 462 kts 347°
2026-05-06 14:38 42.82461 0.97983 37958 ft 455 kts 341°
2026-05-06 14:38 42.88623 0.95872 37978 ft 459 kts 341°
2026-05-06 14:39 42.94806 0.93757 37966 ft 456 kts 341°
2026-05-06 14:39 43.00959 0.91633 37966 ft 456 kts 341°
2026-05-06 14:40 43.07094 0.89507 37969 ft 454 kts 341°
2026-05-06 14:40 43.13239 0.87372 37970 ft 455 kts 341°
2026-05-06 14:41 43.19382 0.85235 37984 ft 455 kts 341°
2026-05-06 14:41 43.25485 0.83106 37979 ft 455 kts 341°
2026-05-06 14:42 43.31652 0.80952 37966 ft 453 kts 341°
2026-05-06 14:42 43.37720 0.78828 37954 ft 452 kts 341°
2026-05-06 14:43 43.43805 0.76689 37964 ft 451 kts 340°
2026-05-06 14:43 43.48740 0.74319 37953 ft 446 kts 332°
2026-05-06 14:44 43.54414 0.70961 37944 ft 445 kts 333°
2026-05-06 14:45 43.62974 0.65948 37947 ft 445 kts 333°
2026-05-06 14:45 43.68633 0.62607 37940 ft 445 kts 333°
2026-05-06 14:46 43.74332 0.59234 37947 ft 446 kts 333°
2026-05-06 14:46 43.80042 0.55846 37943 ft 446 kts 333°
2026-05-06 14:47 43.85752 0.52450 37944 ft 446 kts 333°
2026-05-06 14:47 43.91458 0.49050 37940 ft 447 kts 333°
2026-05-06 14:48 43.97193 0.45625 37944 ft 450 kts 333°
2026-05-06 14:48 44.02914 0.42202 37958 ft 445 kts 333°
2026-05-06 14:49 44.08621 0.38780 37940 ft 447 kts 333°
2026-05-06 14:49 44.14306 0.35365 37939 ft 446 kts 333°
2026-05-06 14:50 44.20015 0.31928 37939 ft 447 kts 333°
2026-05-06 14:50 44.25728 0.28480 37938 ft 447 kts 334°
2026-05-06 14:51 44.31442 0.25025 37940 ft 447 kts 334°
2026-05-06 14:51 44.37114 0.21589 37942 ft 447 kts 334°
2026-05-06 14:52 44.42825 0.18121 37955 ft 448 kts 334°
2026-05-06 14:52 44.48539 0.14643 37952 ft 448 kts 334°
2026-05-06 14:53 44.54255 0.11157 37957 ft 448 kts 334°
2026-05-06 14:53 44.59985 0.07656 37957 ft 448 kts 334°
2026-05-06 14:54 44.65702 0.04154 37941 ft 447 kts 334°
2026-05-06 14:54 44.71391 0.00662 37937 ft 446 kts 334°
2026-05-06 14:55 44.76976 -0.02773 37949 ft 444 kts 334°
2026-05-06 14:55 44.82639 -0.06264 37943 ft 445 kts 334°
2026-05-06 14:56 44.88304 -0.09764 37937 ft 444 kts 334°
2026-05-06 14:56 44.93962 -0.13267 37935 ft 444 kts 334°
2026-05-06 14:57 44.99622 -0.16779 37947 ft 444 kts 334°
2026-05-06 14:57 45.05283 -0.20299 37927 ft 444 kts 334°
2026-05-06 14:58 45.10904 -0.23801 37923 ft 444 kts 334°
2026-05-06 14:58 45.16562 -0.27334 37919 ft 444 kts 334°
2026-05-06 14:59 45.22214 -0.30872 37922 ft 444 kts 334°
2026-05-06 14:59 45.27870 -0.34419 37918 ft 445 kts 334°
2026-05-06 15:00 45.33533 -0.37978 37918 ft 445 kts 334°
2026-05-06 15:00 45.39197 -0.41546 37929 ft 446 kts 334°
2026-05-06 15:01 45.44882 -0.45136 37932 ft 447 kts 334°
2026-05-06 15:01 45.50567 -0.48732 37937 ft 447 kts 334°
2026-05-06 15:02 45.56251 -0.52336 37941 ft 447 kts 334°
2026-05-06 15:02 45.61901 -0.55927 37934 ft 445 kts 334°
2026-05-06 15:03 45.67560 -0.59531 37932 ft 445 kts 334°
2026-05-06 15:03 45.73227 -0.63149 37931 ft 446 kts 334°
2026-05-06 15:04 45.78892 -0.66773 37935 ft 445 kts 334°
2026-05-06 15:04 45.84546 -0.70399 37933 ft 445 kts 334°
2026-05-06 15:05 45.90206 -0.74036 37942 ft 446 kts 334°
2026-05-06 15:05 45.95877 -0.77689 37942 ft 447 kts 334°
2026-05-06 15:06 46.01496 -0.81316 37944 ft 443 kts 334°
2026-05-06 15:06 46.07129 -0.84961 37945 ft 445 kts 334°
2026-05-06 15:07 46.12767 -0.88616 37950 ft 444 kts 334°
2026-05-06 15:07 46.18408 -0.92278 37944 ft 445 kts 335°
2026-05-06 15:08 46.24293 -0.95067 37958 ft 447 kts 346°
2026-05-06 15:08 46.30376 -0.96924 37945 ft 447 kts 346°
2026-05-06 15:09 46.36427 -0.98803 37961 ft 447 kts 346°
2026-05-06 15:09 46.42515 -1.00681 37954 ft 447 kts 346°
2026-05-06 15:10 46.48602 -1.02557 37963 ft 447 kts 346°
2026-05-06 15:10 46.54691 -1.04435 37958 ft 447 kts 346°
2026-05-06 15:11 46.60779 -1.06318 37959 ft 447 kts 346°
2026-05-06 15:11 46.66825 -1.08194 37956 ft 447 kts 346°
2026-05-06 15:12 46.72917 -1.10087 37969 ft 447 kts 346°
2026-05-06 15:12 46.79013 -1.11986 37959 ft 447 kts 346°
2026-05-06 15:13 46.85102 -1.13887 37965 ft 447 kts 346°
2026-05-06 15:13 46.91154 -1.15781 37969 ft 447 kts 346°
2026-05-06 15:14 46.97237 -1.17688 37975 ft 447 kts 346°
2026-05-06 15:14 47.03329 -1.19605 37952 ft 447 kts 346°
2026-05-06 15:15 47.09410 -1.21522 37966 ft 447 kts 346°
2026-05-06 15:15 47.15499 -1.23446 37967 ft 448 kts 346°
2026-05-06 15:16 47.21642 -1.25005 37958 ft 449 kts 351°
2026-05-06 15:16 47.27836 -1.26181 37967 ft 449 kts 351°
2026-05-06 15:17 47.34038 -1.27366 37976 ft 450 kts 351°
2026-05-06 15:17 47.40209 -1.28548 37950 ft 449 kts 351°
2026-05-06 15:18 47.46393 -1.29737 37964 ft 447 kts 351°
2026-05-06 15:18 47.52571 -1.30927 37965 ft 448 kts 351°
2026-05-06 15:19 47.58758 -1.32121 37976 ft 447 kts 351°
2026-05-06 15:19 47.64901 -1.33310 37963 ft 448 kts 351°
2026-05-06 15:20 47.71089 -1.34511 37960 ft 448 kts 351°
2026-05-06 15:20 47.77276 -1.35714 37954 ft 448 kts 351°
2026-05-06 15:21 47.83457 -1.36919 37964 ft 448 kts 351°
2026-05-06 15:21 47.89650 -1.38129 37961 ft 448 kts 351°
2026-05-06 15:22 47.95837 -1.39341 37967 ft 448 kts 351°
2026-05-06 15:22 48.01980 -1.40547 37967 ft 448 kts 351°
2026-05-06 15:23 48.08202 -1.41771 37968 ft 448 kts 351°
2026-05-06 15:23 48.14347 -1.42984 37968 ft 448 kts 351°
2026-05-06 15:24 48.20534 -1.44208 37962 ft 448 kts 351°
2026-05-06 15:24 48.26713 -1.45433 37973 ft 448 kts 351°
2026-05-06 15:25 48.32893 -1.46661 37972 ft 448 kts 351°
2026-05-06 15:25 48.39062 -1.47890 37967 ft 447 kts 351°
2026-05-06 15:26 48.45241 -1.49124 37973 ft 448 kts 351°
2026-05-06 15:26 48.51413 -1.49665 37975 ft 448 kts 357°
2026-05-06 15:27 48.57653 -1.49884 37969 ft 448 kts 357°
2026-05-06 15:27 48.63885 -1.50110 37969 ft 448 kts 357°
2026-05-06 15:28 48.70112 -1.50336 37972 ft 448 kts 357°
2026-05-06 15:28 48.76342 -1.50564 37977 ft 448 kts 357°
2026-05-06 15:29 48.82577 -1.50792 37984 ft 448 kts 357°
2026-05-06 15:29 48.88812 -1.51021 37984 ft 448 kts 357°
2026-05-06 15:30 48.95051 -1.51251 37984 ft 448 kts 357°
2026-05-06 15:30 49.00232 -1.51442 37984 ft 448 kts 357°
2026-05-06 15:31 49.06472 -1.51673 37984 ft 448 kts 357°
2026-05-06 15:31 49.12672 -1.51903 37985 ft 448 kts 357°
2026-05-06 15:32 49.22039 -1.52251 37984 ft 448 kts 357°
2026-05-06 15:32 49.28275 -1.52484 37984 ft 448 kts 357°
2026-05-06 15:33 49.34511 -1.52717 37982 ft 448 kts 357°
2026-05-06 15:33 49.40753 -1.52951 37989 ft 449 kts 357°
2026-05-06 15:34 49.46996 -1.53186 37992 ft 449 kts 357°
2026-05-06 15:34 49.53213 -1.53420 37995 ft 449 kts 357°
2026-05-06 15:35 49.59480 -1.53657 37998 ft 450 kts 357°
2026-05-06 15:35 49.65738 -1.53894 37999 ft 450 kts 357°
2026-05-06 15:36 49.72012 -1.54132 37886 ft 450 kts 357°
2026-05-06 15:36 49.75139 -1.54251 37618 ft 448 kts 357°
2026-05-06 15:36 49.78249 -1.54369 37348 ft 445 kts 357°
2026-05-06 15:37 49.81347 -1.54487 37078 ft 445 kts 357°
2026-05-06 15:37 49.84437 -1.54606 36813 ft 445 kts 357°
2026-05-06 15:37 49.87532 -1.54725 36554 ft 445 kts 357°
2026-05-06 15:37 49.90625 -1.54843 36301 ft 444 kts 357°
2026-05-06 15:38 49.93711 -1.54962 36042 ft 444 kts 357°
2026-05-06 15:38 49.96801 -1.55080 35793 ft 443 kts 357°
2026-05-06 15:38 49.99858 -1.55198 35297 ft 445 kts 357°
2026-05-06 15:38 50.02957 -1.55317 34621 ft 447 kts 357°
2026-05-06 15:39 50.06081 -1.55439 33776 ft 450 kts 357°
2026-05-06 15:39 50.09221 -1.55560 32956 ft 450 kts 357°
2026-05-06 15:39 50.12362 -1.55681 32086 ft 451 kts 357°
2026-05-06 15:39 50.15504 -1.55803 31280 ft 451 kts 357°
2026-05-06 15:40 50.18623 -1.55923 30764 ft 445 kts 357°
2026-05-06 15:40 50.21701 -1.56041 30186 ft 441 kts 357°
2026-05-06 15:40 50.24757 -1.55979 29554 ft 437 kts
2026-05-06 15:40 50.27749 -1.55364 29002 ft 433 kts 10°
2026-05-06 15:41 50.30641 -1.54245 28452 ft 435 kts 16°
2026-05-06 15:41 50.33531 -1.52813 27901 ft 436 kts 16°
2026-05-06 15:41 50.36423 -1.51408 27336 ft 433 kts 16°
2026-05-06 15:41 50.39287 -1.50018 26789 ft 428 kts 16°
2026-05-06 15:42 50.42112 -1.48641 26237 ft 423 kts 16°
2026-05-06 15:42 50.44908 -1.47272 25639 ft 420 kts 16°
2026-05-06 15:42 50.47687 -1.45906 25045 ft 417 kts 16°
2026-05-06 15:42 50.50443 -1.44548 24470 ft 413 kts 16°
2026-05-06 15:43 50.53164 -1.43123 23911 ft 411 kts 20°
2026-05-06 15:43 50.55748 -1.41220 23322 ft 409 kts 27°
2026-05-06 15:43 50.58226 -1.39064 22708 ft 405 kts 27°
2026-05-06 15:43 50.60698 -1.36943 22051 ft 403 kts 27°
2026-05-06 15:44 50.63153 -1.34844 21388 ft 401 kts 27°
2026-05-06 15:44 50.65601 -1.32746 20752 ft 399 kts 27°
2026-05-06 15:44 50.68033 -1.30657 20119 ft 397 kts 27°
2026-05-06 15:44 50.70445 -1.28579 19484 ft 391 kts 27°
2026-05-06 15:45 50.72808 -1.26538 18878 ft 382 kts 27°
2026-05-06 15:45 50.75076 -1.24578 18296 ft 377 kts 27°
2026-05-06 15:45 50.77334 -1.22459 17618 ft 378 kts 32°
2026-05-06 15:45 50.79453 -1.20260 16972 ft 372 kts 32°
2026-05-06 15:46 50.81599 -1.18045 16315 ft 366 kts 31°
2026-05-06 15:46 50.83734 -1.15848 15682 ft 364 kts 31°
2026-05-06 15:46 50.85840 -1.13676 15052 ft 359 kts 31°
2026-05-06 15:46 50.87921 -1.11528 14437 ft 355 kts 31°
2026-05-06 15:47 50.89976 -1.09400 13975 ft 350 kts 31°
2026-05-06 15:47 50.92009 -1.07295 13500 ft 349 kts 31°
2026-05-06 15:47 50.94005 -1.05227 13088 ft 346 kts 31°
2026-05-06 15:47 50.96037 -1.03117 12589 ft 343 kts 31°
2026-05-06 15:48 50.98008 -1.01071 12079 ft 341 kts 31°
2026-05-06 15:48 50.99941 -0.98951 11704 ft 335 kts 36°
2026-05-06 15:48 51.01624 -0.96492 11561 ft 323 kts 45°
2026-05-06 15:48 51.03083 -0.93872 11438 ft 310 kts 46°
2026-05-06 15:49 51.04492 -0.91364 11314 ft 297 kts 45°
2026-05-06 15:49 51.05858 -0.88948 11020 ft 292 kts 45°
2026-05-06 15:49 51.07208 -0.86556 10651 ft 290 kts 45°
2026-05-06 15:49 51.08548 -0.84179 10284 ft 287 kts 46°
2026-05-06 15:50 51.09868 -0.81828 10036 ft 286 kts 46°
2026-05-06 15:50 51.11200 -0.79453 9790 ft 286 kts 46°
2026-05-06 15:50 51.12516 -0.77104 9465 ft 283 kts 46°
2026-05-06 15:50 51.13820 -0.74770 9156 ft 282 kts 46°
2026-05-06 15:51 51.15122 -0.72439 8850 ft 281 kts 46°
2026-05-06 15:51 51.16414 -0.70122 8551 ft 277 kts 46°
2026-05-06 15:51 51.17701 -0.67812 8286 ft 279 kts 45°
2026-05-06 15:51 51.18982 -0.65510 8034 ft 275 kts 46°
2026-05-06 15:52 51.20173 -0.63371 7795 ft 275 kts 46°
2026-05-06 15:52 51.21425 -0.61118 7541 ft 273 kts 45°
2026-05-06 15:52 51.22684 -0.58853 7290 ft 272 kts 46°
2026-05-06 15:52 51.23930 -0.56582 7057 ft 270 kts 46°
2026-05-06 15:53 51.25150 -0.54368 6992 ft 260 kts 45°
2026-05-06 15:53 51.26307 -0.52265 6985 ft 244 kts 46°
2026-05-06 15:53 51.27397 -0.50273 6989 ft 238 kts 46°
2026-05-06 15:53 51.28493 -0.48262 6986 ft 239 kts 46°
2026-05-06 15:54 51.29741 -0.46586 6985 ft 232 kts 21°
2026-05-06 15:54 51.31307 -0.46169 6990 ft 230 kts 350°
2026-05-06 15:54 51.32756 -0.47149 6991 ft 228 kts 320°
2026-05-06 15:54 51.33646 -0.49230 6991 ft 234 kts 288°
2026-05-06 15:55 51.33797 -0.51852 6988 ft 239 kts 271°
2026-05-06 15:55 51.33762 -0.54471 6990 ft 238 kts 270°
2026-05-06 15:55 51.33710 -0.57111 6993 ft 237 kts 271°
2026-05-06 15:55 51.33662 -0.59758 6991 ft 239 kts 271°
2026-05-06 15:56 51.33616 -0.62414 6988 ft 237 kts 270°
2026-05-06 15:56 51.33572 -0.65063 6987 ft 238 kts 270°
2026-05-06 15:56 51.33523 -0.67709 6985 ft 237 kts 270°
2026-05-06 15:56 51.33464 -0.70333 6986 ft 237 kts 270°
2026-05-06 15:57 51.33415 -0.72981 6987 ft 237 kts 271°
2026-05-06 15:57 51.33356 -0.75606 6987 ft 236 kts 271°
2026-05-06 15:57 51.33292 -0.78198 6983 ft 236 kts 271°
2026-05-06 15:57 51.33289 -0.80813 6977 ft 234 kts 283°
2026-05-06 15:58 51.33980 -0.83169 6979 ft 233 kts 313°
2026-05-06 15:58 51.35203 -0.84755 6915 ft 227 kts 326°
2026-05-06 15:58 51.36489 -0.86211 6620 ft 226 kts 326°
2026-05-06 15:58 51.37767 -0.87652 6259 ft 227 kts 326°
2026-05-06 15:59 51.39033 -0.89065 6141 ft 215 kts 326°
2026-05-06 15:59 51.40225 -0.90414 5912 ft 202 kts 326°
2026-05-06 15:59 51.41334 -0.91674 5735 ft 191 kts 326°
2026-05-06 15:59 51.42479 -0.92667 5460 ft 186 kts 351°
2026-05-06 16:00 51.43711 -0.92396 5264 ft 181 kts 28°
2026-05-06 16:00 51.44548 -0.90911 5096 ft 188 kts 59°
2026-05-06 16:00 51.45148 -0.89031 4844 ft 190 kts 61°
2026-05-06 16:00 51.45745 -0.87153 4590 ft 187 kts 60°
2026-05-06 16:01 51.46323 -0.85304 4319 ft 183 kts 61°
2026-05-06 16:01 51.46882 -0.83484 4063 ft 182 kts 61°
2026-05-06 16:01 51.47368 -0.81616 3998 ft 184 kts 72°
2026-05-06 16:01 51.47587 -0.79579 3939 ft 187 kts 82°
2026-05-06 16:02 51.47645 -0.77488 3711 ft 187 kts 85°
2026-05-06 16:02 51.47650 -0.75437 3466 ft 185 kts 86°
2026-05-06 16:02 51.47658 -0.73398 3212 ft 180 kts 86°
2026-05-06 16:02 51.47665 -0.71424 2956 ft 172 kts 86°
2026-05-06 16:03 51.47671 -0.69541 2727 ft 165 kts 85°
2026-05-06 16:03 51.47679 -0.67739 2512 ft 161 kts 85°
2026-05-06 16:03 51.47686 -0.65920 2296 ft 164 kts 85°
2026-05-06 16:03 51.47691 -0.64094 2071 ft 163 kts 85°
2026-05-06 16:04 51.47699 -0.62294 1845 ft 159 kts 85°
2026-05-06 16:04 51.47705 -0.60480 1627 ft 161 kts 85°
2026-05-06 16:04 51.47710 -0.58718 1407 ft 159 kts 85°
2026-05-06 16:04 51.47719 -0.56937 1187 ft 157 kts 85°
2026-05-06 16:05 51.47723 -0.55302 958 ft 144 kts 85°
2026-05-06 16:05 51.47730 -0.53720 772 ft 145 kts 84°
2026-05-06 16:05 51.47735 -0.52103 564 ft 142 kts 85°
2026-05-06 16:05 51.47738 -0.50552 394 ft 144 kts 83°
2026-05-06 16:06 51.47751 -0.48978 186 ft 140 kts 84°
2026-05-06 16:06 51.47757 -0.47447 88 ft 127 kts 90°
2026-05-06 16:06 51.47759 -0.46470 91 ft 47 kts 90°
2026-05-06 16:06 51.47746 -0.46214 87 ft 14 kts 116°
2026-05-06 16:07 51.47682 -0.46120 86 ft 10 kts 144°
2026-05-06 16:07 51.47623 -0.46081 86 ft 9 kts 195°
2026-05-06 16:07 51.47595 -0.46177 90 ft 11 kts 265°
2026-05-06 16:07 51.47594 -0.46322 87 ft 14 kts 269°
2026-05-06 16:08 51.47593 -0.46499 86 ft 17 kts 270°
2026-05-06 16:08 51.47593 -0.46701 86 ft 17 kts 270°
2026-05-06 16:08 51.47588 -0.46890 86 ft 18 kts 260°
2026-05-06 16:08 51.47582 -0.47074 88 ft 17 kts 270°
2026-05-06 16:09 51.47582 -0.47271 91 ft 18 kts 268°
2026-05-06 16:09 51.47581 -0.47444 89 ft 16 kts 270°
2026-05-06 16:09 51.47580 -0.47628 89 ft 17 kts 270°
2026-05-06 16:09 51.47581 -0.47825 88 ft 16 kts 270°
2026-05-06 16:10 51.47580 -0.47991 88 ft 14 kts 269°
2026-05-06 16:10 51.47580 -0.48132 89 ft 13 kts 270°
2026-05-06 16:10 51.47580 -0.48285 88 ft 14 kts 270°
2026-05-06 16:10 51.47578 -0.48417 89 ft 11 kts 263°
2026-05-06 16:11 51.47530 -0.48477 87 ft 10 kts 181°
2026-05-06 16:11 51.47452 -0.48477 86 ft 11 kts 179°
2026-05-06 16:11 51.47383 -0.48475 86 ft 10 kts 180°
2026-05-06 16:11 51.47321 -0.48474 86 ft 7 kts 179°
2026-05-06 16:12 51.47303 -0.48474 86 ft 3 kts 179°
2026-05-06 16:12 51.47283 -0.48480 86 ft 2 kts 212°
2026-05-06 16:12 51.47272 -0.48517 88 ft 5 kts 262°
2026-05-06 16:12 51.47271 -0.48553 87 ft 2 kts 269°
2026-05-06 16:13 51.47271 -0.48569 87 ft 1 kts 269°
2026-05-06 16:13 51.47271 -0.48582 86 ft 1 kts 269°
2026-05-06 16:13 51.47271 -0.48585 88 ft 0 kts 269°